Location: Belmont
(13.0833°N, 59.6000°W)
Time: 20:05:39
(UTC+00:00)

YAOGAN 1 - Pass Details

Date: 17 September 2019
Orbit: 619 x 621 km, 98.0° (Epoch: 16 October)

Event Time Altitude Azimuth Distance (km) Brightness Sun altitude
Rises 22:13:40 0° 149° (SSE) 2,886 5.7 -4.6°
Reaches altitude 10° 22:16:02 10° 139° (SE) 1,981 4.7 -5.2°
Maximum altitude 22:19:51 31° 76° (ENE) 1,079 3.3 -6.1°
Drops below altitude 10° 22:23:40 10° 14° (NNE) 1,981 5.1 -7.0°
Sets 22:26:02 0° 4° (N) 2,887 6.0 -7.6°
